Location: Igri�s
(42.2144°N, 0.4320°W)
Time: 18:14:13
(UTC+00:00)

Cosmos 1867 - Pass Details

Date: 13 August 2020
Orbit: 777 x 798 km, 65.0° (Epoch: 18 September)

Event Time Altitude Azimuth Distance (km) Brightness Sun altitude
Rises 20:01:36 0° 210° (SSW) 3,266 6.8 -10.3°
Reaches altitude 10° 20:03:59 10° 211° (SSW) 2,344 6.0 -10.7°
Maximum altitude 20:09:23 88° 126° (SE) 798 3.6 -11.6°
Drops below altitude 10° 20:14:52 10° 34° (NNE) 2,371 6.0 -12.4°
Sets 20:17:18 0° 34° (NE) 3,307 6.8 -12.8°
